Weather History for Grand Canyon, AZ

Change the Weather History Date:

Saturday, August 16, 2014

  Actual Average Record
Temperature  
Mean Temperature 65 °F -  
Max Temperature 84 °F 79 °F 91 °F (1992)
Min Temperature 46 °F 47 °F 37 °F (1987)
Growing Degree Days 15 (Base 50)    
Moisture  
Dew Point 44 °F    
Average Humidity 52    
Maximum Humidity 93    
Minimum Humidity 22    
Precipitation  
Precipitation 0.00 in - - ()
Sea Level Pressure  
Sea Level Pressure 30.05 in    
Wind  
Wind Speed 3 mph (NNE)    
Max Wind Speed 13 mph    
Max Gust Speed -    
Visibility 10 miles    
Events      
Averages and records for this station are not official NWS values.
T = Trace of Precipitation, MM = Missing Value Source: NWS Daily Summary

Daily Weather History Graph

Daily Weather History Graph

Search for Another Location

Airport:

Trip Planner

Search our weather history database for the weather conditions in past years. The results will help you decide how hot, cold, wet, or windy it might be!

Date:

Astronomy

Aug. 16, 2014 Rise Set
Actual Time 5:48 AM MST 7:17 PM MST
Civil Twilight 5:20 AM MST 7:44 PM MST
Nautical Twilight 4:48 AM MST 8:16 PM MST
Astronomical Twilight 4:14 AM MST 8:50 PM MST
Moon 11:17 PM MST (8/16) 12:23 PM MST (8/16)
Length of Visible Light 14h 23m
Length of Day
13h 29m
Waning Gibbous, 58% of the Moon is Illuminated
Aug 16
Waning Gibbous
Aug 17
Last Quarter
Aug 25
New
Sep 2
First Quarter
Sep 8
Full

Hourly Weather History & Observations

Time (MST) Temp. Windchill Dew Point Humidity Pressure Visibility Wind Dir Wind Speed Gust Speed Precip Events Conditions
12:54 AM 53.1 °F - 48.0 °F 83% 30.05 in 10.0 mi ENE 3.5 mph - N/A   Clear
1:54 AM 50.0 °F - 46.9 °F 89% 30.06 in 10.0 mi Calm Calm - N/A   Clear
2:54 AM 48.9 °F - 46.0 °F 90% 30.06 in 10.0 mi Calm Calm - N/A   Clear
3:54 AM 46.9 °F - 45.0 °F 93% 30.06 in 10.0 mi East 3.5 mph - N/A   Clear
4:54 AM 46.0 °F 44.8 °F 44.1 °F 93% 30.08 in 10.0 mi ENE 3.5 mph - N/A   Clear
5:54 AM 46.0 °F - 43.0 °F 89% 30.09 in 10.0 mi Calm Calm - N/A   Clear
6:54 AM 53.1 °F - 46.0 °F 77% 30.09 in 10.0 mi East 4.6 mph - N/A   Clear
7:54 AM 66.9 °F - 50.0 °F 54% 30.08 in 10.0 mi Calm Calm - N/A   Clear
8:54 AM 73.9 °F - 42.1 °F 32% 30.07 in 10.0 mi North 5.8 mph - N/A   Clear
9:54 AM 75.9 °F - 43.0 °F 31% 30.09 in 10.0 mi WNW 8.1 mph - N/A   Clear
10:54 AM 79.0 °F - 46.9 °F 32% 30.08 in 10.0 mi Variable 5.8 mph - N/A   Clear
11:54 AM 80.1 °F - 45.0 °F 29% 30.08 in 10.0 mi WSW 12.7 mph - N/A   Clear
12:54 PM 81.0 °F - 42.1 °F 25% 30.07 in 10.0 mi Calm Calm - N/A   Clear
1:54 PM 82.0 °F - 39.9 °F 22% 30.06 in 10.0 mi WSW 8.1 mph - N/A   Clear
2:54 PM 82.9 °F - 39.9 °F 22% 30.04 in 10.0 mi Variable 4.6 mph - N/A   Clear
3:54 PM 84.0 °F - 42.1 °F 23% 30.02 in 10.0 mi Variable 3.5 mph - N/A   Partly Cloudy
4:54 PM 82.9 °F - 39.9 °F 22% 30.01 in 10.0 mi Calm Calm - N/A   Clear
5:54 PM 82.9 °F - 39.9 °F 22% 30.00 in 10.0 mi WSW 6.9 mph - N/A   Clear
6:54 PM 78.1 °F - 39.0 °F 25% 30.00 in 10.0 mi Variable 3.5 mph - N/A   Clear
7:54 PM 69.1 °F - 44.1 °F 40% 30.00 in - North - - N/A   Unknown
8:54 PM 61.0 °F - 45.0 °F 56% 30.02 in 10.0 mi Calm Calm - N/A   Unknown
9:54 PM 55.9 °F - 45.0 °F 67% 30.04 in 10.0 mi Calm Calm - N/A   Clear
10:54 PM 54.0 °F - 44.1 °F 69% 30.03 in 10.0 mi Calm Calm - N/A   Clear
11:54 PM 55.9 °F - 44.1 °F 64% 30.01 in 10.0 mi NE 9.2 mph - N/A   Clear